| time (UTC) | temp F | wind direction | speed knots | gust knots | rain 1hr in | rain 24hr in | rain mn in | humidity % | barometer mb |
| 20260903091501 | 77 | 24 | 14.8 | 29.5 | 0.00 | 0.00 | 0.00 | 48 | 1018.9 |
| 20260903084558 | 77 | 319 | 17.4 | 30.4 | 0.00 | 0.00 | 0.00 | 51 | 1019.1 |
| 20260903083054 | 76 | 304 | 13.0 | 27.8 | 0.00 | 0.00 | 0.00 | 52 | 1019.1 |
| 20260903081552 | 76 | 345 | 21.7 | 35.6 | 0.00 | 0.00 | 0.00 | 52 | 1019.1 |
| 20260903080049 | 75 | 358 | 7.8 | 15.6 | 0.00 | 0.00 | 0.00 | 56 | 1019.1 |
| 20260903074603 | 74 | 320 | 9.6 | 20.9 | 0.00 | 0.00 | 0.00 | 59 | 1019.1 |
| 20260903073048 | 73 | 337 | 0.0 | 7.8 | 0.00 | 0.00 | 0.00 | 62 | 1019.0 |
| 20260903071538 | 71 | 338 | 0.0 | 0.0 | 0.00 | 0.00 | 0.00 | 66 | 1018.9 |
| 20260903070037 | 69 | 338 | 0.0 | 0.0 | 0.00 | 0.00 | 0.00 | 68 | 1019.1 |
| 20260903064533 | 68 | 338 | 0.0 | 0.0 | 0.00 | 0.00 | 0.00 | 69 | 1019.0 |
| 20260903063031 | 67 | 338 | 0.0 | 0.0 | 0.00 | 0.00 | 0.00 | 69 | 1019.0 |
| 20260903061549 | 67 | 338 | 0.0 | 0.0 | 0.00 | 0.00 | 0.00 | 69 | 1019.1 |
| 20260903060029 | 67 | 338 | 0.0 | 0.0 | 0.00 | 0.00 | 0.00 | 70 | 1019.1 |
| 20260903054527 | 66 | 338 | 0.0 | 0.0 | 0.00 | 0.00 | 0.00 | 68 | 1019.0 |
| 20260903053025 | 66 | 338 | 0.0 | 0.0 | 0.00 | 0.00 | 0.00 | 68 | 1018.8 |
| 20260903051524 | 67 | 338 | 0.0 | 0.0 | 0.00 | 0.00 | 0.00 | 69 | 1019.0 |
| 20260903050024 | 67 | 338 | 0.0 | 0.0 | 0.00 | 0.00 | 0.00 | 68 | 1018.7 |
| 20260903044519 | 67 | 338 | 0.0 | 0.0 | 0.00 | 0.00 | 0.00 | 66 | 1018.5 |
| 20260903043017 | 67 | 338 | 0.0 | 0.0 | 0.00 | 0.00 | 0.00 | 64 | 1018.4 |
| 20260903041523 | 67 | 338 | 0.0 | 0.0 | 0.00 | 0.00 | 0.00 | 63 | 1018.5 |
| 20260903040014 | 67 | 338 | 0.0 | 0.0 | 0.00 | 0.00 | 0.00 | 64 | 1018.4 |
| 20260903034512 | 67 | 338 | 0.0 | 0.0 | 0.00 | 0.00 | 0.00 | 64 | 1018.3 |
| 20260903033015 | 67 | 338 | 0.0 | 0.0 | 0.00 | 0.00 | 0.00 | 64 | 1018.1 |
| 20260903031519 | 67 | 338 | 0.0 | 0.0 | 0.00 | 0.00 | 0.00 | 62 | 1018.2 |
| 20260903030012 | 67 | 338 | 0.0 | 0.0 | 0.00 | 0.00 | 0.00 | 62 | 1018.2 |
| 20260903024509 | 67 | 338 | 0.0 | 0.0 | 0.00 | 0.00 | 0.00 | 62 | 1018.2 |
| 20260903023008 | 68 | 338 | 0.0 | 0.0 | 0.00 | 0.00 | 0.00 | 61 | 1018.1 |
| 20260903021506 | 68 | 338 | 0.0 | 0.0 | 0.00 | 0.00 | 0.00 | 61 | 1018.0 |
| 20260903020012 | 68 | 338 | 0.0 | 0.0 | 0.00 | 0.00 | 0.00 | 60 | 1018.1 |
| 20260903014501 | 69 | 338 | 0.0 | 0.0 | 0.00 | 0.00 | 0.00 | 59 | 1018.2 |
| 20260903013105 | 69 | 338 | 0.0 | 0.0 | 0.00 | 0.00 | 0.00 | 58 | 1018.2 |
| 20260903011620 | 70 | 338 | 0.0 | 0.0 | 0.00 | 0.00 | 0.00 | 57 | 1018.3 |
| 20260903010110 | 70 | 338 | 0.0 | 0.0 | 0.00 | 0.00 | 0.00 | 57 | 1018.3 |
| 20260903004604 | 70 | 338 | 0.0 | 0.0 | 0.00 | 0.00 | 0.00 | 56 | 1018.4 |
| 20260903003109 | 70 | 338 | 0.0 | 0.0 | 0.00 | 0.00 | 0.00 | 56 | 1018.3 |
| 20260903001601 | 70 | 338 | 0.0 | 0.0 | 0.00 | 0.00 | 0.00 | 57 | 1018.4 |
| 20260903000055 | 70 | 338 | 0.0 | 0.0 | 0.00 | 0.00 | 0.00 | 57 | 1018.4 |
| 20260902234557 | 70 | 338 | 0.0 | 0.0 | 0.00 | 0.00 | 0.00 | 57 | 1018.4 |
| 20260902233053 | 70 | 343 | 0.0 | 0.0 | 0.00 | 0.00 | 0.00 | 56 | 1018.4 |
| 20260902231552 | 71 | 345 | 0.0 | 0.0 | 0.00 | 0.00 | 0.00 | 56 | 1018.3 |
| 20260902230058 | 71 | 345 | 0.0 | 0.0 | 0.00 | 0.00 | 0.00 | 55 | 1018.3 |
| 20260902224552 | 71 | 345 | 0.0 | 0.0 | 0.00 | 0.00 | 0.00 | 55 | 1018.3 |
| 20260902223046 | 71 | 345 | 0.0 | 0.0 | 0.00 | 0.00 | 0.00 | 54 | 1018.2 |
| 20260902221543 | 72 | 345 | 0.9 | 13.9 | 0.00 | 0.00 | 0.00 | 53 | 1018.2 |
| 20260902220043 | 72 | 337 | 7.0 | 18.2 | 0.00 | 0.00 | 0.00 | 52 | 1018.0 |
| 20260902214544 | 72 | 346 | 10.4 | 19.1 | 0.00 | 0.00 | 0.00 | 52 | 1017.9 |
| 20260902213140 | 72 | 344 | 7.8 | 18.2 | 0.00 | 0.00 | 0.00 | 52 | 1017.8 |
| 20260902211538 | 72 | 344 | 9.6 | 15.6 | 0.00 | 0.00 | 0.00 | 53 | 1017.9 |
| 20260902210038 | 71 | 321 | 0.9 | 13.0 | 0.00 | 0.00 | 0.00 | 54 | 1017.8 |
| 20260902204540 | 71 | 294 | 0.0 | 10.4 | 0.00 | 0.00 | 0.00 | 57 | 1017.7 |
| 20260902203036 | 71 | 292 | 0.0 | 10.4 | 0.00 | 0.00 | 0.00 | 59 | 1017.5 |
| 20260902201545 | 70 | 304 | 6.1 | 14.8 | 0.00 | 0.00 | 0.00 | 60 | 1017.5 |
| 20260902200039 | 71 | 230 | 1.7 | 9.6 | 0.00 | 0.00 | 0.00 | 62 | 1017.5 |
| 20260902194548 | 71 | 230 | 0.0 | 10.4 | 0.00 | 0.00 | 0.00 | 65 | 1017.5 |
| 20260902193035 | 72 | 224 | 0.0 | 5.2 | 0.00 | 0.00 | 0.00 | 65 | 1017.6 |
| 20260902191534 | 73 | 224 | 0.0 | 0.0 | 0.00 | 0.00 | 0.00 | 64 | 1017.6 |
| 20260902190034 | 73 | 224 | 0.0 | 0.0 | 0.00 | 0.00 | 0.00 | 61 | 1017.4 |
| 20260902184539 | 74 | 224 | 0.0 | 0.0 | 0.00 | 0.00 | 0.00 | 60 | 1017.2 |
| 20260902183033 | 75 | 224 | 0.0 | 0.0 | 0.00 | 0.00 | 0.00 | 60 | 1017.1 |
| 20260902181533 | 75 | 224 | 0.0 | 0.0 | 0.00 | 0.00 | 0.00 | 59 | 1017.0 |
| 20260902180033 | 76 | 224 | 0.0 | 0.0 | 0.00 | 0.00 | 0.00 | 57 | 1017.0 |
| 20260902174532 | 77 | 224 | 0.0 | 0.0 | 0.00 | 0.00 | 0.00 | 56 | 1016.9 |
| 20260902173031 | 77 | 224 | 0.0 | 0.0 | 0.00 | 0.00 | 0.00 | 54 | 1016.7 |
| 20260902171531 | 78 | 224 | 0.0 | 9.6 | 0.00 | 0.00 | 0.00 | 53 | 1016.6 |
| 20260902170029 | 79 | 224 | 0.9 | 15.6 | 0.00 | 0.00 | 0.00 | 52 | 1016.7 |
| 20260902164530 | 80 | 215 | 7.8 | 18.2 | 0.00 | 0.00 | 0.00 | 50 | 1016.8 |
| 20260902163028 | 80 | 219 | 4.3 | 15.6 | 0.00 | 0.00 | 0.00 | 49 | 1016.9 |
| 20260902161536 | 80 | 224 | 7.0 | 16.5 | 0.00 | 0.00 | 0.00 | 49 | 1016.9 |
| 20260902160026 | 81 | 192 | 4.3 | 14.8 | 0.00 | 0.00 | 0.00 | 46 | 1016.9 |
| 20260902154525 | 81 | 210 | 3.5 | 13.0 | 0.00 | 0.00 | 0.00 | 44 | 1017.0 |
| 20260902153025 | 81 | 187 | 1.7 | 12.2 | 0.00 | 0.00 | 0.00 | 43 | 1017.0 |
| 20260902151528 | 81 | 171 | 1.7 | 13.0 | 0.00 | 0.00 | 0.00 | 44 | 1016.9 |
| 20260902150023 | 82 | 167 | 7.0 | 12.2 | 0.00 | 0.00 | 0.00 | 43 | 1017.0 |
| 20260902144522 | 82 | 182 | 6.1 | 15.6 | 0.00 | 0.00 | 0.00 | 42 | 1017.0 |
| 20260902143021 | 82 | 96 | 0.0 | 0.0 | 0.00 | 0.00 | 0.00 | 42 | 1017.0 |
| 20260902141519 | 82 | 117 | 3.5 | 11.3 | 0.00 | 0.00 | 0.00 | 42 | 1017.2 |
| 20260902140019 | 82 | 145 | 0.0 | 11.3 | 0.00 | 0.00 | 0.00 | 41 | 1017.3 |
| 20260902134526 | 82 | 119 | 0.0 | 0.0 | 0.00 | 0.00 | 0.00 | 42 | 1017.4 |
| 20260902133015 | 81 | 114 | 0.0 | 11.3 | 0.00 | 0.00 | 0.00 | 43 | 1017.5 |
| 20260902131514 | 82 | 152 | 0.0 | 8.7 | 0.00 | 0.00 | 0.00 | 41 | 1017.7 |
| 20260902130014 | 83 | 20 | 0.0 | 16.5 | 0.00 | 0.00 | 0.00 | 41 | 1017.7 |
| 20260902124515 | 85 | 284 | 4.3 | 17.4 | 0.00 | 0.00 | 0.00 | 40 | 1017.7 |
| 20260902123015 | 84 | 296 | 0.0 | 19.1 | 0.00 | 0.00 | 0.00 | 40 | 1018.0 |
| 20260902121509 | 84 | 221 | 5.2 | 13.0 | 0.00 | 0.00 | 0.00 | 40 | 1018.2 |
| 20260902120005 | 83 | 262 | 0.0 | 13.0 | 0.00 | 0.00 | 0.00 | 41 | 1018.4 |
| 20260902114505 | 82 | 235 | 5.2 | 13.0 | 0.00 | 0.00 | 0.00 | 42 | 1018.5 |
| 20260902113105 | 81 | 168 | 0.0 | 16.5 | 0.00 | 0.00 | 0.00 | 44 | 1018.6 |
| 20260902111557 | 81 | 186 | 9.6 | 13.9 | 0.00 | 0.00 | 0.00 | 44 | 1018.7 |
| 20260902110058 | 81 | 119 | 0.0 | 8.7 | 0.00 | 0.00 | 0.00 | 45 | 1019.0 |
| 20260902104615 | 80 | 170 | 3.5 | 8.7 | 0.00 | 0.00 | 0.00 | 44 | 1019.2 |
| 20260902103049 | 81 | 282 | 0.0 | 0.0 | 0.00 | 0.00 | 0.00 | 46 | 1019.4 |
| 20260902101546 | 80 | 354 | 0.0 | 6.1 | 0.00 | 0.00 | 0.00 | 48 | 1019.5 |
| 20260902100101 | 78 | 354 | 0.0 | 0.0 | 0.00 | 0.00 | 0.00 | 50 | 1019.8 |
| 20260902094540 | 78 | 354 | 0.0 | 0.0 | 0.00 | 0.00 | 0.00 | 50 | 1020.0 |
| 20260902093036 | 76 | 354 | 0.0 | 6.1 | 0.00 | 0.00 | 0.00 | 53 | 1020.1 |